Location: Seattle
(47.6064°N, 122.3308°W)
Time: 00:52:46
(UTC-08:00)

Envisat - Pass Details

Date: 04 November 2020
Orbit: 764 x 766 km, 98.1° (Epoch: 03 December)

Event Time Altitude Azimuth Distance (km) Brightness Sun altitude
Rises 05:41:55 0° 19° (NNE) 3,244 6.4 -13.3°
Reaches altitude 10° 05:44:21 10° 25° (NNE) 2,312 5.7 -12.9°
Maximum altitude 05:49:13 44° 98° (E) 1,047 4.3 -12.1°
Drops below altitude 10° 05:54:03 10° 171° (S) 2,295 5.7 -11.3°
Sets 05:56:26 0° 177° (S) 3,216 6.4 -10.9°
